Regional Weather Roundup
Issued by NWS

Home | Current Version | Previous Version | Graphics & Text | Print | Product List | Glossary On
Versions: 1 2 3 4 5 6 7 8 9 10 11 12 13 14 15 16 17 18 19 20 21 22 23 24 25 26 27 28 29 30 31 32 33 34 35 36 37 38 39 40 41 42 43 44 45 46 47 48 49 50
692
ASUS44 KLIX 011210
RWRLA
LOUISIANA WEATHER ROUNDUP
NATIONAL WEATHER SERVICE NEW ORLEANS LA
700 AM CDT MON SEP 01 2014

NOTE: "FAIR" INDICATES FEW OR NO CLOUDS BELOW 12,000 FEET WITH NO
      SIGNIFICANT WEATHER AND/OR OBSTRUCTIONS TO VISIBILITY.
      SKY/WX - SKY CONDITION AND SIGNIFICANT WEATHER.
      TMP - AIR TEMPERATURE.    DP   - DEWPOINT TEMPERATURE.
      RH  - RELATIVE HUMIDITY.  PRES - PRESSURE.
      HX  - HEAT INDEX.         WCI  - WIND CHILL INDEX.

*  THESE STATIONS ARE NOT NWS OR FAA STATIONS AND ARE NOT UNDER
   NWS QUALITY CONTROL.

LAZ040-048-061>063-065-066-069-011300-
SOUTHEAST LOUISIANA

CITY           SKY/WX    TMP DP  RH WIND       PRES   REMARKS
N.O. AUDUBON   NOT AVBL
N.O. INTL ARPT MOCLDY    81  76  84 E6        30.03R
6HR MIN TEMP:  80; 6HR MAX TEMP:  82;

N.O. LAKEFRONT CLEAR     80  77  90 SE5       30.04R
6HR MIN TEMP:  80; 6HR MAX TEMP:  81;

N.O. DOWNTOWN* FAIR      82  73  74 CALM      30.04R
6HR MIN TEMP:  81; 6HR MAX TEMP:  82;

SLIDELL        PTCLDY    76  73  91 CALM      30.04R
6HR MIN TEMP:  75; 6HR MAX TEMP:  80;

BATON ROUGE    CLEAR     75  73  93 CALM      30.03R FOG
6HR MIN TEMP:  74; 6HR MAX TEMP:  78;

BOOTHVILLE     PTCLDY    83  77  82 SE6       30.04R
6HR MIN TEMP:  81; 6HR MAX TEMP:  83;

BELLE CHASSE   PTCLDY    82  75  79 SE3       30.03R
6HR MIN TEMP:  79; 6HR MAX TEMP:  83;

BOGALUSA*        N/A     73  70  90 CALM      30.06R
6HR MIN TEMP:  72; 6HR MAX TEMP:  76;

GALLIANO*      NOT AVBL
NEW ROADS*       N/A     75  74  98 CALM      30.03R FOG
6HR MIN TEMP:  74; 6HR MAX TEMP:  77;

GONZALES*      FAIR      75  75 100 CALM      30.02R FOG
6HR MIN TEMP:  74; 6HR MAX TEMP:  79;

HAMMOND*       CLEAR     75  72  88 CALM      30.05S
HOUMA*         PTCLDY    75  72  88 E2        30.02R
PORT FOURCHON* MOSUNNY   84  77  79 SE10      30.04R

$$

LAZ041-044-053-054-011300-
SOUTHWEST LOUISIANA

CITY           SKY/WX    TMP DP  RH WIND       PRES   REMARKS
LAKE CHARLES   CLEAR     77  76  96 SE6       29.98R
6HR MIN TEMP:  76; 6HR MAX TEMP:  79; 6HR PCP:  0.01;

LAFAYETTE      CLOUDY    77  76  96 CALM      30.01S FOG
6HR MIN TEMP:  76; 6HR MAX TEMP:  78;

PATTERSON        N/A     75  75 100 NE3       30.04R
6HR MIN TEMP:  75; 6HR MAX TEMP:  79;

SALT POINT       N/A     82  78  88 CALM      30.00R
6HR MIN TEMP:  81; 6HR MAX TEMP:  86; 6HR PCP:  0.04;

NEW IBERIA     MOCLDY    77  76  96 E5        30.02R FOG
6HR MIN TEMP:  77; 6HR MAX TEMP:  79;

CHENAULT AIRPK NOT AVBL

$$

LAZ027-028-011300-
CENTRAL LOUISIANA

CITY           SKY/WX    TMP DP  RH WIND       PRES   REMARKS
FORT POLK      CLOUDY    77  76  96 SE8       29.99R
6HR MIN TEMP:  73; 6HR MAX TEMP:  77;

ALEXANDRIA INT FOG       75  75 100 SE7       29.99R VSB 1/4
6HR MIN TEMP:  73; 6HR MAX TEMP:  77;

ALEXANDRIA     CLOUDY    74  72  93 CALM      30.01R
6HR MIN TEMP:  73; 6HR MAX TEMP:  76;


$$

LAZ001-002-011300-
NORTHWEST LOUISIANA

CITY           SKY/WX    TMP DP  RH WIND       PRES   REMARKS
SHREVEPORT     MOCLDY    76  74  93 S6        29.98R
6HR MIN TEMP:  73; 6HR MAX TEMP:  76;

BARKSDALE AFB  CLOUDY    75  75 100 S6        29.99R
6HR MIN TEMP:  72; 6HR MAX TEMP:  75;

DTN SHREVEPORT CLOUDY    75  73  94 S7        29.99R
6HR MIN TEMP:  74; 6HR MAX TEMP:  77;


$$

LAZ014-016-011300-
NORTHEAST LOUISIANA

CITY           SKY/WX    TMP DP  RH WIND       PRES   REMARKS
MONROE         CLOUDY    72  70  93 E3        30.03R FOG
6HR MIN TEMP:  72; 6HR MAX TEMP:  74;

TALLULAH       PTCLDY    75  74  96 SE5       30.02S
6HR MIN TEMP:  73; 6HR MAX TEMP:  78;


$$




USA.gov is the U.S. government's official web portal to all federal, state and local government web resources and services.